IU7TPK-1 Weather Reports


time (UTC)temp
C
wind
direction
speed
KPH
gust
KPH
rain 1hr
cm
rain 24hr
cm
rain mn
cm
humidity
%
barometer
mb
20260507181004 17 106 0.0 6.4 0.00 0.53 0.53 51 1013.0
20260507180503 17 97 3.2 4.8 0.00 0.53 0.53 51 1013.0
20260507180006 17 90 0.0 4.8 0.00 0.53 0.53 51 1013.0
20260507175504 17 96 0.0 4.8 0.00 0.53 0.53 50 1013.0
20260507175003 18 112 0.0 4.8 0.00 0.53 0.53 50 1012.0
20260507174506 18 131 0.0 4.8 0.00 0.53 0.53 49 1012.0
20260507174004 18 130 0.0 3.2 0.00 0.53 0.53 49 1012.0
20260507173504 18 142 0.0 6.4 0.00 0.53 0.53 48 1013.0
20260507173006 18 136 0.0 6.4 0.00 0.53 0.53 48 1013.0
20260507172004 18 152 4.8 6.4 0.00 0.53 0.53 48 1012.0
20260507171506 18 137 0.0 4.8 0.00 0.53 0.53 47 1012.0
20260507171004 18 150 0.0 6.4 0.00 0.53 0.53 46 1012.0
20260507170503 19 160 3.2 6.4 0.00 0.53 0.53 46 1013.0
20260507170007 19 145 0.0 4.8 0.00 0.53 0.53 46 1013.0
20260507165503 19 142 3.2 4.8 0.00 0.53 0.53 45 1013.0
20260507165004 19 142 0.0 6.4 0.00 0.53 0.53 45 1013.0
20260507164506 19 139 0.0 6.4 0.00 0.53 0.53 44 1013.0
20260507164004 19 142 3.2 4.8 0.00 0.53 0.53 43 1013.0
20260507162007 20 153 6.4 8.0 0.00 0.53 0.53 42 1012.0
20260507161509 20 142 3.2 8.0 0.00 0.53 0.53 42 1012.0
20260507161006 20 129 0.0 8.0 0.00 0.53 0.53 41 1012.0
20260507160506 20 139 4.8 9.7 0.00 0.53 0.53 41 1012.0
20260507160010 20 149 6.4 9.7 0.00 0.53 0.53 41 1012.0
20260507155507 20 149 6.4 9.7 0.00 0.53 0.53 42 1012.0
20260507154510 20 156 4.8 9.7 0.00 0.53 0.53 39 1013.0
20260507154008 20 151 4.8 9.7 0.00 0.53 0.53 39 1013.0
20260507153506 21 143 3.2 9.7 0.00 0.53 0.53 39 1013.0
20260507153010 21 145 3.2 9.7 0.00 0.53 0.53 39 1013.0
20260507152507 21 145 6.4 9.7 0.00 0.53 0.53 39 1013.0
20260507152007 21 140 4.8 8.0 0.00 0.53 0.53 39 1013.0
20260507151509 21 143 6.4 9.7 0.00 0.53 0.53 38 1013.0
20260507151006 21 137 6.4 9.7 0.00 0.53 0.53 37 1013.0
20260507150009 22 147 4.8 9.7 0.00 0.53 0.53 38 1013.0
20260507145506 21 149 6.4 9.7 0.00 0.53 0.53 37 1013.0
20260507145006 21 152 6.4 9.7 0.00 0.53 0.53 38 1013.0
20260507144007 22 147 6.4 12.9 0.00 0.53 0.53 37 1013.0
20260507143507 22 147 6.4 12.9 0.00 0.53 0.53 37 1013.0
20260507143009 22 146 6.4 12.9 0.00 0.53 0.53 37 1013.0
20260507142506 22 146 6.4 9.7 0.00 0.53 0.53 37 1013.0
20260507142006 22 152 6.4 9.7 0.00 0.53 0.53 38 1013.0
20260507141509 22 152 0.0 12.9 0.00 0.53 0.53 40 1013.0
20260507140507 22 149 6.4 9.7 0.00 0.53 0.53 39 1013.0
20260507140010 22 147 6.4 9.7 0.00 0.53 0.53 41 1013.0
20260507135506 23 153 6.4 9.7 0.00 0.53 0.53 40 1013.0
20260507134509 22 149 6.4 9.7 0.00 0.53 0.53 42 1013.0
20260507132507 22 164 4.8 9.7 0.00 0.53 0.53 45 1014.0
20260507132007 21 168 6.4 9.7 0.00 0.53 0.53 46 1014.0
20260507131510 21 171 6.4 9.7 0.00 0.53 0.53 46 1014.0
20260507131007 22 167 3.2 9.7 0.00 0.53 0.53 48 1014.0
20260507130507 22 160 4.8 9.7 0.00 0.53 0.53 50 1014.0
20260507130009 22 155 6.4 8.0 0.00 0.53 0.53 51 1014.0
20260507125506 21 154 0.0 8.0 0.00 0.53 0.53 53 1014.0
20260507124510 21 154 6.4 9.7 0.00 0.53 0.53 59 1014.0
20260507124006 21 145 0.0 9.7 0.00 0.53 0.53 59 1014.0
20260507123506 21 143 6.4 9.7 0.00 0.53 0.53 62 1013.0
20260507122507 20 156 4.8 9.7 0.00 0.53 0.53 66 1013.0
20260507122007 20 149 4.8 8.0 0.00 0.53 0.53 68 1014.0
20260507121510 20 145 0.0 6.4 0.00 0.53 0.53 68 1014.0
20260507121006 19 141 3.2 8.0 0.00 0.53 0.53 69 1014.0
20260507120506 19 141 6.4 8.0 0.00 0.53 0.53 68 1014.0
20260507120010 19 157 4.8 8.0 0.00 0.53 0.53 69 1014.0
20260507115507 19 159 4.8 9.7 0.00 0.53 0.53 68 1014.0
20260507115007 20 155 4.8 9.7 0.00 0.53 0.53 69 1014.0
20260507114006 20 152 4.8 9.7 0.00 0.53 0.53 70 1014.0
20260507113009 19 150 4.8 8.0 0.00 0.53 0.53 70 1014.0
20260507112506 19 150 4.8 8.0 0.00 0.53 0.53 69 1014.0
20260507112007 19 145 6.4 9.7 0.00 0.53 0.53 70 1015.0
20260507111006 19 147 6.4 9.7 0.00 0.53 0.53 70 1015.0
20260507110506 19 144 3.2 9.7 0.00 0.53 0.53 71 1015.0
20260507110009 19 150 3.2 8.0 0.00 0.53 0.53 71 1015.0
20260507105507 18 144 6.4 12.9 0.00 0.53 0.53 70 1015.0
20260507105007 19 144 6.4 12.9 0.00 0.53 0.53 70 1015.0
20260507104006 18 144 4.8 9.7 0.00 0.53 0.53 71 1015.0
20260507103507 18 145 4.8 9.7 0.00 0.53 0.53 71 1015.0
20260507103009 19 147 3.2 9.7 0.00 0.53 0.53 72 1015.0
20260507102506 19 150 3.2 11.3 0.00 0.53 0.53 71 1015.0
20260507102007 19 148 6.4 11.3 0.00 0.53 0.53 71 1015.0
20260507101509 20 149 4.8 11.3 0.00 0.53 0.53 72 1015.0
20260507101007 19 147 4.8 11.3 0.00 0.53 0.53 73 1015.0
20260507100507 20 146 3.2 9.7 0.00 0.53 0.53 73 1015.0
20260507100009 20 141 6.4 12.9 0.00 0.53 0.53 75 1015.0
20260507095506 20 139 3.2 12.9 0.00 0.53 0.53 76 1015.0
20260507095006 19 130 6.4 9.7 0.00 0.53 0.53 76 1015.0
20260507094006 18 143 4.8 9.7 0.00 0.53 0.53 77 1015.0
20260507093506 18 128 6.4 9.7 0.00 0.53 0.53 78 1014.0
20260507092507 18 119 4.8 8.0 0.00 0.53 0.53 79 1014.0
20260507092007 18 110 4.8 6.4 0.00 0.53 0.53 80 1015.0
20260507091510 18 114 0.0 4.8 0.00 0.53 0.53 82 1015.0
20260507091006 18 141 0.0 8.0 0.00 0.53 0.53 82 1015.0
20260507090507 17 133 0.0 9.7 0.00 0.53 0.53 82 1015.0
20260507090010 17 117 0.0 9.7 0.00 0.53 0.53 83 1015.0
20260507085506 17 109 4.8 9.7 0.00 0.53 0.53 83 1015.0
20260507085006 17 97 6.4 9.7 0.00 0.53 0.53 84 1014.0
20260507084510 17 94 4.8 8.0 0.00 0.53 0.53 85 1014.0
20260507084006 17 107 4.8 9.7 0.00 0.53 0.53 85 1014.0
20260507083009 17 89 4.8 9.7 0.00 0.53 0.53 85 1014.0
20260507082506 17 73 0.0 9.7 0.00 0.53 0.53 86 1014.0
20260507082007 16 54 4.8 9.7 0.00 0.53 0.53 87 1014.0
20260507081006 16 41 6.4 12.9 0.00 0.53 0.53 89 1014.0
20260507080506 16 51 6.4 9.7 0.00 0.53 0.53 90 1014.0
20260507075506 16 49 6.4 9.7 0.00 0.53 0.53 90 1014.0
20260507075006 16 52 6.4 9.7 0.00 0.53 0.53 90 1014.0
20260507074006 16 47 6.4 12.9 0.00 0.53 0.53 90 1014.0
20260507073009 16 41 8.0 12.9 0.00 0.53 0.53 90 1014.0
20260507072007 16 53 0.0 6.4 0.00 0.53 0.53 90 1015.0
20260507071509 16 80 0.0 6.4 0.00 0.53 0.53 90 1015.0
20260507070507 16 90 3.2 8.0 0.00 0.53 0.53 91 1015.0
20260507070012 16 88 0.0 8.0 0.00 0.53 0.53 91 1015.0
20260507065507 16 87 4.8 6.4 0.00 0.53 0.53 91 1015.0
20260507065007 16 66 3.2 6.4 0.00 0.53 0.53 91 1015.0
20260507064509 16 63 0.0 4.8 0.00 0.53 0.53 92 1015.0
20260507063506 16 58 0.0 8.0 0.00 0.53 0.53 92 1015.0
20260507063009 16 53 3.2 8.0 0.00 0.53 0.53 92 1015.0
20260507062506 16 59 0.0 6.4 0.00 0.53 0.53 92 1015.0
20260507062006 16 63 4.8 6.4 0.00 0.53 0.53 92 1015.0
20260507060507 16 40 4.8 4.8 0.00 0.53 0.53 92 1015.0
20260507060010 16 28 0.0 4.8 0.00 0.53 0.53 92 1015.0
20260507055506 16 38 0.0 4.8 0.00 0.53 0.53 92 1015.0
20260507054509 16 74 0.0 4.8 0.00 0.53 0.53 92 1015.0
20260507054006 16 66 0.0 4.8 0.00 0.53 0.53 92 1015.0
20260507053506 16 75 0.0 4.8 0.00 0.53 0.53 92 1015.0
20260507053009 16 105 0.0 4.8 0.00 0.53 0.53 92 1015.0
20260507052007 16 169 0.0 4.8 0.00 0.53 0.53 92 1015.0
20260507051510 16 156 0.0 4.8 0.00 0.53 0.53 92 1015.0
20260507051006 16 142 0.0 4.8 0.00 0.53 0.53 92 1015.0
20260507050009 15 55 0.0 6.4 0.00 0.53 0.53 93 1014.0
20260507045006 15 5 3.2 6.4 0.00 0.53 0.53 94 1014.0
20260507044006 15 29 3.2 9.7 0.00 0.53 0.53 95 1014.0
20260507042506 15 20 4.8 9.7 0.03 0.53 0.53 96 1014.0
20260507042006 16 24 4.8 6.4 0.03 0.53 0.53 96 1014.0
20260507041509 16 30 4.8 6.4 0.05 0.53 0.53 96 1014.0
20260507041006 16 32 3.2 6.4 0.08 0.53 0.53 96 1014.0
20260507040507 16 33 0.0 6.4 0.10 0.53 0.53 96 1014.0
20260507040009 16 36 4.8 8.0 0.10 0.53 0.53 96 1014.0
20260507035506 16 42 6.4 8.0 0.10 0.53 0.53 96 1014.0
20260507035006 16 44 4.8 6.4 0.13 0.53 0.53 96 1014.0
20260507034509 16 31 0.0 11.3 0.10 0.51 0.51 95 1014.0
20260507034007 16 24 6.4 11.3 0.10 0.51 0.51 95 1014.0
20260507033507 16 24 4.8 6.4 0.10 0.51 0.51 95 1014.0
20260507032007 16 47 0.0 6.4 0.10 0.51 0.51 95 1014.0
20260507031510 16 64 0.0 6.4 0.08 0.48 0.48 95 1014.0
20260507031007 16 68 0.0 4.8 0.05 0.46 0.46 95 1014.0
20260507030507 16 61 3.2 6.4 0.03 0.43 0.43 95 1014.0
20260507030009 16 59 0.0 6.4 0.00 0.43 0.43 95 1014.0
20260507025506 16 83 4.8 6.4 0.00 0.43 0.43 95 1014.0
20260507025006 16 108 3.2 8.0 0.00 0.41 0.41 94 1014.0
20260507024509 16 110 4.8 8.0 0.00 0.41 0.41 94 1014.0
20260507024006 16 113 0.0 9.7 0.00 0.41 0.41 94 1014.0
20260507023506 16 116 4.8 9.7 0.03 0.41 0.41 94 1014.0
20260507023009 16 122 0.0 6.4 0.03 0.41 0.41 93 1014.0
20260507022506 16 133 0.0 4.8 0.03 0.41 0.41 93 1014.0
20260507022006 16 155 0.0 6.4 0.05 0.41 0.41 93 1013.0
20260507021006 16 174 4.8 6.4 0.08 0.41 0.41 93 1013.0
20260507020506 16 15 0.0 6.4 0.08 0.41 0.41 93 1012.0
20260507020009 16 22 3.2 9.7 0.10 0.41 0.41 94 1012.0
20260507015007 16 17 4.8 11.3 0.10 0.41 0.41 95 1012.0
20260507014510 16 16 6.4 11.3 0.10 0.41 0.41 95 1012.0
20260507014006 16 8 6.4 9.7 0.10 0.41 0.41 95 1012.0
20260507013507 16 10 6.4 8.0 0.08 0.38 0.38 95 1014.0
20260507013009 16 32 4.8 6.4 0.08 0.38 0.38 95 1014.0
20260507012006 16 33 4.8 6.4 0.05 0.38 0.38 94 1014.0
20260507011509 16 52 4.8 6.4 0.05 0.36 0.36 94 1014.0
20260507011006 16 127 0.0 6.4 0.03 0.33 0.33 94 1014.0
20260507010506 16 129 0.0 4.8 0.03 0.33 0.33 94 1014.0
20260507010009 16 108 0.0 4.8 0.00 0.33 0.33 94 1014.0
20260507005006 16 49 0.0 4.8 0.00 0.30 0.30 94 1013.0
20260507004509 16 28 0.0 6.4 0.00 0.30 0.30 94 1013.0
20260507004006 16 36 4.8 6.4 0.00 0.30 0.30 94 1013.0
20260507003506 16 67 0.0 4.8 0.00 0.30 0.30 94 1014.0
20260507003009 16 100 0.0 4.8 0.00 0.30 0.30 94 1014.0
20260507002506 16 102 0.0 4.8 0.00 0.30 0.30 94 1014.0
20260507002006 16 99 0.0 6.4 0.03 0.30 0.30 94 1013.0
20260507001006 16 117 3.2 6.4 0.10 0.30 0.30 94 1013.0
20260507000009 16 110 0.0 4.8 0.15 0.30 0.30 94 1013.0
20260506235006 16 99 0.0 6.4 0.18 0.30 0.30 95 1013.0
20260506234509 16 112 3.2 4.8 0.23 0.30 0.30 95 1013.0
20260506233506 16 46 0.0 6.4 0.28 0.30 0.30 95 1013.0
20260506233009 16 39 4.8 6.4 0.28 0.30 0.30 95 1013.0
20260506232506 16 26 3.2 6.4 0.28 0.30 0.30 94 1013.0
20260506232006 16 18 4.8 6.4 0.28 0.28 0.28 94 1013.0
20260506231509 16 20 0.0 8.0 0.25 0.25 0.25 94 1013.0
20260506231006 16 24 4.8 8.0 0.20 0.20 0.20 93 1013.0
20260506230506 16 34 0.0 4.8 0.18 0.18 0.18 93 1013.0
20260506230009 16 44 0.0 4.8 0.18 0.18 0.18 93 1013.0
20260506225507 16 43 0.0 4.8 0.15 0.15 0.15 93 1013.0
20260506224509 16 91 0.0 4.8 0.05 0.05 0.05 92 1014.0
20260506224006 16 91 4.8 4.8 0.05 0.05 0.05 91 1014.0
20260506223506 16 69 0.0 4.8 0.03 0.03 0.03 91 1014.0
20260506223009 16 73 0.0 4.8 0.03 0.03 0.03 91 1014.0
20260506222507 17 112 0.0 4.8 0.03 0.03 0.03 90 1014.0
20260506222006 17 112 0.0 3.2 0.00 0.00 0.00 90 1014.0
20260506221006 17 112 0.0 4.8 0.00 0.00 0.00 89 1014.0
20260506220506 17 139 0.0 4.8 0.00 0.00 0.00 88 1014.0
20260506220009 17 156 0.0 4.8 0.00 0.00 0.00 88 1014.0
20260506215506 17 160 0.0 4.8 0.00 0.00 0.00 88 1014.0
20260506214006 17 131 0.0 4.8 0.00 0.00 0.00 87 1014.0
20260506213506 17 141 0.0 6.4 0.00 0.00 0.00 86 1014.0
20260506213009 17 136 0.0 6.4 0.00 0.00 0.00 86 1014.0
20260506212006 17 131 3.2 6.4 0.00 0.00 0.00 86 1014.0
20260506211509 17 149 3.2 6.4 0.00 0.00 0.00 86 1014.0
20260506211006 17 136 0.0 6.4 0.00 0.00 0.00 86 1014.0
20260506210009 17 118 0.0 9.7 0.00 0.00 0.00 86 1014.0
20260506205506 16 128 3.2 9.7 0.00 0.00 0.00 86 1014.0
20260506205007 17 117 0.0 6.4 0.00 0.00 0.00 85 1014.0
20260506204509 17 106 3.2 6.4 0.00 0.00 0.00 85 1014.0
20260506204007 16 102 4.8 6.4 0.00 0.00 0.00 85 1014.0
20260506203506 16 113 0.0 6.4 0.00 0.00 0.00 85 1014.0
20260506203009 17 117 3.2 6.4 0.00 0.00 0.00 85 1014.0
20260506202506 16 112 4.8 6.4 0.00 0.00 0.00 85 1014.0
20260506200507 16 113 0.0 6.4 0.00 0.00 0.00 85 1013.0
20260506195506 17 107 3.2 6.4 0.00 0.00 0.00 84 1013.0
20260506195006 17 116 4.8 6.4 0.00 0.00 0.00 84 1013.0
20260506194509 17 117 3.2 6.4 0.00 0.00 0.00 84 1013.0
20260506194007 17 121 4.8 6.4 0.00 0.00 0.00 84 1013.0
20260506193506 17 123 4.8 6.4 0.00 0.00 0.00 84 1013.0
20260506193009 17 117 4.8 6.4 0.00 0.00 0.00 84 1013.0
20260506192507 17 118 4.8 6.4 0.00 0.00 0.00 84 1013.0
20260506192007 17 120 3.2 6.4 0.00 0.00 0.00 83 1013.0
20260506191509 16 115 4.8 6.4 0.00 0.00 0.00 84 1013.0
20260506191007 17 104 0.0 6.4 0.00 0.00 0.00 83 1013.0
20260506190506 17 108 4.8 8.0 0.00 0.00 0.00 83 1013.0
20260506190009 17 124 0.0 8.0 0.00 0.00 0.00 83 1013.0
20260506185508 17 122 0.0 8.0 0.00 0.00 0.00 83 1013.0
20260506185006 17 105 4.8 9.7 0.00 0.00 0.00 83 1013.0
20260506184509 17 117 6.4 9.7 0.00 0.00 0.00 83 1013.0
20260506184006 17 114 3.2 8.0 0.00 0.00 0.00 83 1013.0
20260506183506 17 106 6.4 8.0 0.00 0.00 0.00 83 1013.0
20260506183009 17 115 4.8 8.0 0.00 0.00 0.00 83 1013.0
20260506182507 17 121 0.0 6.4 0.00 0.00 0.00 82 1013.0
20260506182006 17 113 0.0 6.4 0.00 0.00 0.00 82 1013.0
20260506181509 17 114 0.0 6.4 0.00 0.00 0.00 82 1013.0